Weather in Novoishminskiy

Kazakhstan     53°12′21″N   66°48′33″E
temp.,
°C
wind,
m/s
gust,
m/s
humid.,
%
clouds,
%
prec.,
mm/h
press.,
hPa
HPBL,
m
13 june, sun
sun1300:00+15e33575 0.0 102342
03:00+13e346014 0.0 102452
06:00+13se226110 0.0 102519
09:00+19sse114313 0.0 1025334
12:00+23ese23335 0.0 10251572
15:00+25e223246 0.0 10242325
18:00+25e323257 0.0 10232417
21:00+22ese35515 0.0 102485
14 june, mon
mon1400:00+18ese225511 0.0 102419
03:00+17sse22585 0.0 102411
06:00+16wsw00615 0.0 102610
09:00+22ese11475 0.0 1026323
12:00+26ene11345 0.0 10252116
15:00+28n11295 0.0 10242676
18:00+28n22285 0.0 10232774
21:00+25e22395 0.0 102214
15 june, tue
tue1500:00+21sse33515 0.0 102221
03:00+19ssw33496 0.0 102131
06:00+19ssw33535 0.0 102224
09:00+24ssw34405 0.0 1021367
12:00+29sw34285 0.0 10202933
15:00+30wnw332413 0.0 10183224
18:00+30w2324100 0.0 10172384
21:00+25wsw2241100 0.0 101734
16 june, wed
wed1600:00+24sw334081 0.0 101634
03:00+21sw344419 0.0 101640
06:00+20ssw335042 0.0 101641
09:00+25ssw3341100 0.0 1017224
12:00+29sw4429100 0.0 10161423
15:00+31wsw332599 0.0 10142987
18:00+31w3425100 0.0 10132759
21:00+25sw333779 0.1 101339
17 june, thu
thu1700:00+21s44475 0.2 101448
03:00+20sw334926 0.0 101234
06:00+20ssw475395 0.0 101199
09:00+21ssw245453 0.1 101183
12:00+26sw594099 0.1 1009528
15:00+28nw2232100 0.0 1006366
18:00+31s610255 0.0 10022759
21:00+21sw71358100 0.3 1003407